Hourly Weather Çermik

Today, 19 June, Saturday

Time Temperature Precipitation Wind Pressure Humidity
00:00 +25°C° 0 mm 2 mps 688 mmHg 24%
01:00 +25°C° 0 mm 2 mps 688 mmHg 25%
02:00 +24°C° 0 mm 2 mps 688 mmHg 26%
03:00 +24°C° 0 mm 2 mps 687 mmHg 26%
04:00 +24°C° 0 mm 2 mps 687 mmHg 28%
05:00 +24°C° 0 mm 2 mps 687 mmHg 29%
06:00 +24°C° 0 mm 2 mps 687 mmHg 30%
07:00 +27°C° 0 mm 2 mps 688 mmHg 27%
08:00 +29°C° 0 mm 2 mps 688 mmHg 24%
09:00 +31°C° 0 mm 2 mps 688 mmHg 20%
10:00 +34°C° 0 mm 2 mps 688 mmHg 17%
11:00 +35°C° 0 mm 1 mps 688 mmHg 14%
12:00 +37°C° 0 mm 1 mps 688 mmHg 11%
13:00 +38°C° 0 mm 2 mps 688 mmHg 10%
14:00 +39°C° 0 mm 2 mps 688 mmHg 9%
15:00 +40°C° 0 mm 3 mps 687 mmHg 8%
16:00 +40°C° 0 mm 4 mps 687 mmHg 8%
17:00 +40°C° 0 mm 4 mps 687 mmHg 8%
18:00 +39°C° 0 mm 5 mps 687 mmHg 9%
19:00 +36°C° 0 mm 4 mps 687 mmHg 11%
20:00 +33°C° 0 mm 3 mps 687 mmHg 14%
21:00 +29°C° 0 mm 3 mps 687 mmHg 16%
22:00 +28°C° 0 mm 2 mps 687 mmHg 21%
23:00 +27°C° 0 mm 2 mps 687 mmHg 26%

Tomorrow, 20 June, Sunday

Time Temperature Precipitation Wind Pressure Humidity
00:00 +26°C° 0 mm 2 mps 687 mmHg 31%
01:00 +25°C° 0 mm 2 mps 687 mmHg 35%
02:00 +24°C° 0 mm 1 mps 687 mmHg 39%
03:00 +23°C° 0 mm 1 mps 687 mmHg 43%
04:00 +23°C° 0 mm 1 mps 688 mmHg 44%
05:00 +24°C° 0 mm 1 mps 688 mmHg 45%
06:00 +22°C° 0 mm 0 mps 688 mmHg 45%
07:00 +26°C° 0 mm 1 mps 689 mmHg 39%
08:00 +29°C° 0 mm 1 mps 689 mmHg 33%
09:00 +31°C° 0 mm 1 mps 690 mmHg 27%
10:00 +34°C° 0 mm 2 mps 690 mmHg 23%
11:00 +35°C° 0 mm 3 mps 690 mmHg 18%
12:00 +37°C° 0 mm 3 mps 690 mmHg 14%
13:00 +38°C° 0 mm 4 mps 690 mmHg 12%
14:00 +39°C° 0 mm 5 mps 690 mmHg 11%
15:00 +40°C° 0 mm 5 mps 690 mmHg 9%
16:00 +39°C° 0 mm 5 mps 690 mmHg 10%
17:00 +37°C° 0 mm 5 mps 689 mmHg 11%
18:00 +37°C° 0 mm 5 mps 689 mmHg 12%
19:00 +34°C° 0 mm 4 mps 689 mmHg 16%
20:00 +31°C° 0 mm 3 mps 689 mmHg 19%
21:00 +28°C° 0 mm 2 mps 689 mmHg 22%
22:00 +27°C° 0 mm 2 mps 689 mmHg 26%
23:00 +26°C° 0 mm 2 mps 689 mmHg 30%

Day after tomorrow, 21 June, Monday

Time Temperature Precipitation Wind Pressure Humidity
00:00 +25°C° 0 mm 2 mps 689 mmHg 33%
01:00 +25°C° 0 mm 2 mps 689 mmHg 37%
02:00 +24°C° 0 mm 1 mps 689 mmHg 41%
03:00 +23°C° 0 mm 1 mps 689 mmHg 45%
04:00 +24°C° 0 mm 1 mps 689 mmHg 45%
05:00 +24°C° 0 mm 1 mps 689 mmHg 46%
06:00 +24°C° 0 mm 1 mps 689 mmHg 47%
07:00 +27°C° 0 mm 1 mps 690 mmHg 40%
08:00 +29°C° 0 mm 1 mps 690 mmHg 32%
09:00 +31°C° 0 mm 2 mps 691 mmHg 24%
10:00 +34°C° 0 mm 2 mps 691 mmHg 21%
11:00 +35°C° 0 mm 3 mps 691 mmHg 17%
12:00 +37°C° 0 mm 4 mps 691 mmHg 14%
13:00 +37°C° 0 mm 5 mps 691 mmHg 13%
14:00 +39°C° 0 mm 6 mps 691 mmHg 12%
15:00 +39°C° 0 mm 6 mps 691 mmHg 11%
16:00 +39°C° 0 mm 6 mps 691 mmHg 11%
17:00 +37°C° 0 mm 5 mps 691 mmHg 11%
18:00 +36°C° 0 mm 5 mps 690 mmHg 12%
19:00 +34°C° 0 mm 4 mps 690 mmHg 15%
20:00 +31°C° 0 mm 3 mps 690 mmHg 18%
21:00 +28°C° 0 mm 2 mps 690 mmHg 21%
22:00 +27°C° 0 mm 2 mps 690 mmHg 22%
23:00 +26°C° 0 mm 2 mps 690 mmHg 24%

22 June, Tuesday

Time Temperature Precipitation Wind Pressure Humidity
00:00 +26°C° 0 mm 2 mps 690 mmHg 25%
01:00 +25°C° 0 mm 2 mps 690 mmHg 26%
02:00 +25°C° 0 mm 1 mps 690 mmHg 26%
03:00 +25°C° 0 mm 1 mps 689 mmHg 27%
04:00 +25°C° 0 mm 1 mps 690 mmHg 26%
05:00 +25°C° 0 mm 1 mps 690 mmHg 26%
06:00 +26°C° 0 mm 1 mps 690 mmHg 26%
07:00 +28°C° 0 mm 1 mps 690 mmHg 22%
08:00 +31°C° 0 mm 1 mps 691 mmHg 19%
09:00 +33°C° 0 mm 1 mps 691 mmHg 15%
10:00 +35°C° 0 mm 2 mps 691 mmHg 14%
11:00 +37°C° 0 mm 3 mps 691 mmHg 13%
12:00 +38°C° 0 mm 4 mps 691 mmHg 11%
13:00 +40°C° 0 mm 5 mps 690 mmHg 11%
14:00 +40°C° 0 mm 6 mps 690 mmHg 10%
15:00 +41°C° 0 mm 8 mps 690 mmHg 10%
16:00 +40°C° 0 mm 8 mps 690 mmHg 11%
17:00 +39°C° 0 mm 8 mps 690 mmHg 11%
18:00 +38°C° 0 mm 8 mps 689 mmHg 12%
19:00 +34°C° 0 mm 6 mps 690 mmHg 14%
20:00 +32°C° 0 mm 5 mps 690 mmHg 17%
21:00 +29°C° 0 mm 4 mps 690 mmHg 20%
22:00 +27°C° 0 mm 3 mps 690 mmHg 25%
23:00 +26°C° 0 mm 3 mps 690 mmHg 30%

23 June, Wednesday

Time Temperature Precipitation Wind Pressure Humidity
00:00 +25°C° 0 mm 2 mps 690 mmHg 35%
01:00 +24°C° 0 mm 2 mps 690 mmHg 37%
02:00 +24°C° 0 mm 1 mps 690 mmHg 40%
03:00 +23°C° 0 mm 1 mps 690 mmHg 42%
04:00 +23°C° 0 mm 1 mps 690 mmHg 42%
05:00 +24°C° 0 mm 1 mps 690 mmHg 42%
06:00 +24°C° 0 mm 1 mps 691 mmHg 42%
07:00 +26°C° 0 mm 1 mps 691 mmHg 37%
08:00 +28°C° 0 mm 1 mps 691 mmHg 32%
09:00 +30°C° 0 mm 1 mps 692 mmHg 27%
10:00 +32°C° 0 mm 2 mps 692 mmHg 24%
11:00 +34°C° 0 mm 2 mps 692 mmHg 22%
12:00 +35°C° 0 mm 3 mps 692 mmHg 19%
13:00 +36°C° 0 mm 3 mps 692 mmHg 18%
14:00 +37°C° 0 mm 4 mps 692 mmHg 16%
15:00 +37°C° 0 mm 4 mps 691 mmHg 14%
16:00 +37°C° 0 mm 4 mps 691 mmHg 14%
17:00 +37°C° 0 mm 4 mps 691 mmHg 14%
18:00 +36°C° 0 mm 4 mps 691 mmHg 14%
19:00 +34°C° 0 mm 4 mps 691 mmHg 17%
20:00 +31°C° 0 mm 3 mps 691 mmHg 20%
21:00 +29°C° 0 mm 2 mps 691 mmHg 22%
22:00 +28°C° 0 mm 2 mps 691 mmHg 23%
23:00 +27°C° 0 mm 2 mps 691 mmHg 24%

24 June, Thursday

Time Temperature Precipitation Wind Pressure Humidity
00:00 +26°C° 0 mm 1 mps 691 mmHg 25%
01:00 +26°C° 0 mm 1 mps 691 mmHg 27%
02:00 +25°C° 0 mm 1 mps 691 mmHg 29%
03:00 +25°C° 0 mm 1 mps 691 mmHg 31%
04:00 +25°C° 0 mm 1 mps 691 mmHg 31%
05:00 +25°C° 0 mm 1 mps 691 mmHg 31%
06:00 +26°C° 0 mm 1 mps 691 mmHg 32%
07:00 +28°C° 0 mm 1 mps 692 mmHg 27%
08:00 +30°C° 0 mm 1 mps 692 mmHg 23%
09:00 +33°C° 0 mm 1 mps 692 mmHg 19%
10:00 +35°C° 0 mm 2 mps 692 mmHg 17%
11:00 +36°C° 0 mm 2 mps 692 mmHg 15%
12:00 +38°C° 0 mm 3 mps 692 mmHg 12%
13:00 +38°C° 0 mm 3 mps 692 mmHg 12%
14:00 +40°C° 0 mm 4 mps 692 mmHg 12%
15:00 +41°C° 0 mm 4 mps 691 mmHg 11%
16:00 +40°C° 0 mm 4 mps 691 mmHg 12%
17:00 +40°C° 0 mm 4 mps 691 mmHg 12%
18:00 +38°C° 0 mm 4 mps 691 mmHg 13%
19:00 +36°C° 0 mm 4 mps 691 mmHg 15%
20:00 +34°C° 0 mm 3 mps 690 mmHg 17%
21:00 +30°C° 0 mm 2 mps 690 mmHg 19%
22:00 +29°C° 0 mm 2 mps 690 mmHg 19%
23:00 +29°C° 0 mm 2 mps 690 mmHg 20%
Show more

We Need Your Consent

Meteoprog and our Service Providers may store and access personal data such as cookies, device identifiers or other similar technologies on your device and process such data to personalise content and ads, as well as provide social media features and to analyse the traffic.

  • Store and/or access information on your device

    Cookies, device identifiers or other information can be stored or accessed on your device for the purposes indicated above.

  • Personalised ads and content, ad and content measurement, audience insights, and products development

    Ads and content can be personalised based on a profile. More data can be added to better personalise ads and content. Ad and content performance can be measured. Insights about the audience who saw the ads and content can be derived. Such data can be used to develop or improve user’s experience, systems and software.

By clicking ‘I Agree’ you will allow the use of indicated cookies, device identifiers, web beacons or other similar technologies. Your settings can be changed in the browser on your device.

For certain purposes, legitimate interests may be relied on, rather than consent. You can read more about this in our Privacy and Cookie Policy.